Hourly Data Report for June 05, 2021

VINELAND STATION RCS
ONTARIO
Current Station Operator: ECCC - MSC

43°11'00.000" N
79°24'00.000" W
79.20 m
6139148
71171
XVN

Download Data

Hourly Data (June 2021)
Hourly Data Report for June 5, 2021
TIME
LST
Temp Definition
°C
Dew Point Definition
°C
Rel Hum Definition
%
Precip. Amount Definition
mm

Wind Dir Definition
10's deg

Wind Spd Definition
km/h
Visibility Definition
km
Stn Press Definition
kPa
Hmdx Definition


Wind Chill Definition


Weather Definition


00:00 20.3 14.8 71 0.0 21 18   99.98     LegendNANA
01:00 20.7 14.3 66 0.0 22 23   99.99     LegendNANA
02:00 21.9 13.6 59 0.0 22 22   99.95 25   LegendNANA
03:00 21.2 13.4 61 0.0 22 27   99.94     LegendNANA
04:00 20.9 13.3 62 0.0 23 24   99.96     LegendNANA
05:00 20.6 13.1 62 0.0 23 22   99.98     LegendNANA
06:00 21.3 13.3 60 0.0 24 24   100.06     LegendNANA
07:00 23.9 13.5 52 0.0 25 22   100.11 27   LegendNANA
08:00 25.6 14.4 50 0.0 26 20   100.14 29   LegendNANA
09:00 26.6 14.7 48 0.0 25 26   100.16 30   LegendNANA
10:00 28.8 15.0 43 0.0 26 23   100.17 33   LegendNANA
11:00 29.6 15.4 42 0.0 25 23   100.17 34   LegendNANA
12:00 30.1 14.5 39 0.0 25 21   100.17 34   LegendNANA
13:00 29.4 17.1 48 0.0 21 24   100.12 35   LegendNANA
14:00 28.9 16.0 46 0.0 22 30   100.12 34   LegendNANA
15:00 28.2 15.3 45 0.0 22 30   100.10 32   LegendNANA
16:00 28.8 15.0 43 0.0 23 31   100.12 33   LegendNANA
17:00 28.2 13.9 42 0.0 23 32   100.15 32   LegendNANA
18:00 27.5 14.2 44 0.0 23 27   100.17 31   LegendNANA
19:00 26.5 14.1 46 0.0 23 20   100.21 30   LegendNANA
20:00 25.6 14.0 49 0.0 22 19   100.23 29   LegendNANA
21:00 25.2 14.1 50 0.0 23 17   100.28 29   LegendNANA
22:00 24.4 14.0 52 0.0 22 17   100.30 28   LegendNANA
23:00 23.7 13.8 54 0.0 21 17   100.30 27   LegendNANA

Notes on Data Quality.

Legend

  • E = Estimated
  • M = Missing
  • NA = Not Available*
  • [empty] = Indicates an unobserved value
Date modified: